[[{"header":{"parameterUnit":"m.s-1","parameterCategory":1,"la1":30.2991,"la2":30.254,"lo1":-89.0895,"lo2":-89.0444,"dy":0.0017,"dx":0.0017,"nx":28,"ny":28,"refTime":"2023-10-03T21:00:00:Z","depth":0,"parameterNumber":2,"parameterNumberName":"U-component_of_WINDS"},"data":[0,0,0,0,0,0,0,0,0,0,0,0,0,0,0,0,0,0,0,0,0,0,0,0,0,0,0,0,0,0,0,0,0,0,0,0,0,0,0,0,0,0,0,0,0,0,0,0,0,0,0,0,0,0,0,0,0,0,-5.5418,-5.5418,0,-5.5434,-5.5434,-5.5434,-5.5295,-5.5291,-5.5287,-5.5284,-5.5301,-5.5305,-5.5309,0,0,0,0,0,0,0,0,0,0,0,0,0,-5.527,-5.5274,-5.5418,-5.5418,-5.5419,-5.5434,-5.5434,-5.5434,-5.5296,-5.5291,-5.5286,-5.5282,-5.53,-5.5305,-5.531,0,0,0,0,0,0,0,0,0,0,0,0,0,-5.5315,-5.5275,-5.5418,-5.5351,-5.5345,-5.5434,-5.5434,-5.5434,-5.5297,-5.5291,-5.5285,-5.528,-5.5298,-5.5304,-5.531,-5.5464,0,0,-5.5329,-5.5332,0,0,0,0,0,0,0,0,-5.5313,-5.5321,-5.5361,-5.5356,-5.535,-5.5356,-5.5388,-5.5444,-5.5298,-5.5315,-5.5284,-5.5277,-5.5325,-5.5328,-5.5344,-5.5465,-5.5466,-5.533,-5.5333,-5.5336,-5.5338,0,0,0,0,0,0,0,-5.531,-5.5319,-5.5424,-5.5362,-5.5355,-5.5321,-5.5321,-5.5398,-5.5352,-5.5313,-5.5303,-5.5307,-5.532,-5.5338,-5.5343,-5.5466,-5.5329,-5.5335,-5.5339,-5.5341,-5.5716,-5.5722,0,0,0,0,0,0,-5.5316,-5.5318,-5.5424,-5.5425,-5.5317,-5.5329,-5.5328,-5.536,-5.5351,-5.5344,-5.5312,-5.53,-5.5331,-5.5336,-5.5343,-5.5524,-5.5336,-5.5342,-5.5345,-5.571,-5.5717,-5.5724,0,0,0,0,0,0,-5.5313,-5.5326,-5.5423,-5.5369,-5.5378,-5.5337,-5.5374,-5.5364,-5.5381,-5.535,-5.5341,-5.5339,-5.5326,-5.5335,-5.5435,-5.5523,-5.5344,-5.535,-5.5702,-5.5712,-5.5721,-5.5887,0,0,0,0,0,0,-5.5309,-5.5326,-5.5384,-5.5371,-5.5382,-5.5515,-5.5379,-5.5368,-5.5392,-5.5377,-5.5373,-5.5366,-5.5322,-5.5427,-5.5442,-5.5528,-5.5355,-5.5694,-5.5707,-5.5718,-5.5874,-5.5901,-5.5924,0,0,0,0,0,-5.5304,-5.543,-5.5387,-5.5401,-5.5453,-5.552,-5.5527,-5.5473,-5.54,-5.5458,-5.5438,-5.5367,-5.5511,-5.5439,-5.5454,-5.5543,-5.5689,-5.5703,-5.5717,-5.5862,-5.5896,-5.5924,0,0,0,0,0,0,-5.5454,-5.5427,-5.5379,-5.5504,-5.5516,-5.5497,-5.5568,-5.551,-5.5543,-5.5528,-5.546,-5.546,-5.5573,-5.5567,-5.5488,-5.5693,-5.5587,-5.5605,-5.5692,-5.5724,-5.5749,-5.5748,-5.536,0,0,0,0,0,-5.5502,-5.5558,-5.5531,-5.5644,-5.5652,-5.561,-5.5637,-5.5595,-5.5604,-5.5608,-5.5595,-5.5608,-5.5656,-5.5689,-5.5731,-5.5871,-5.587,-5.5941,-5.5966,-5.5987,-5.6004,-5.608,-5.6112,-5.5771,-5.5771,-5.577,0,0,-5.56,-5.5592,-5.5632,-5.5674,-5.5678,-5.5739,-5.5615,-5.5684,-5.5729,-5.5619,-5.5714,-5.5705,-5.5714,-5.5836,-5.5889,-5.5835,-5.6098,-5.6005,-5.6022,-5.6028,-5.6098,-5.613,-5.6159,-5.578,-5.5779,-5.5777,0,0,-5.5812,-5.5811,-5.5906,-5.5913,-5.592,-5.5891,-5.5914,-5.5904,-5.5894,-5.5988,-5.5907,-5.596,-5.6044,-5.6054,-5.6071,-5.6288,-5.6225,-5.6304,-5.6437,-5.6512,-5.6539,-5.6562,-5.6642,-5.6671,-5.632,-5.632,-5.6321,0,-5.5934,-5.6023,-5.5962,-5.6038,-5.6059,-5.5962,-5.6058,-5.6067,-5.6089,-5.6107,-5.6046,-5.615,-5.6149,-5.6273,-5.6326,-5.6342,-5.6368,-5.6304,-5.654,-5.6563,-5.6584,-5.6659,-5.6689,-5.633,-5.6329,-5.6328,-5.6327,0,-5.6174,-5.6236,-5.6312,-5.6336,-5.6365,-5.6451,-5.6404,-5.6442,-5.6397,-5.6375,-5.6473,-5.6469,-5.6509,-5.6535,-5.6492,-5.6654,-5.6621,-5.6551,-5.6444,-5.6627,-5.6697,-5.6725,-5.6344,-5.6341,-5.6338,-5.6335,0,0,-5.6481,-5.647,-5.6499,-5.6509,-5.6511,-5.6558,-5.664,-5.668,-5.6714,-5.6732,-5.68,-5.6874,-5.681,-5.6829,-5.6786,-5.6852,-5.7027,-5.6774,-5.6773,-5.6823,-5.7207,-5.7261,-5.7296,-5.6984,-5.6989,-5.6993,-5.7207,0,-5.6689,-5.6827,-5.6776,-5.6919,-5.6977,-5.6886,-5.6957,-5.6967,-5.6949,-5.6996,-5.6975,-5.703,-5.694,-5.6951,-5.7011,-5.6993,-5.7103,-5.6976,-5.7049,-5.7052,-5.7051,-5.7331,-5.7388,-5.7591,-5.7234,-5.7238,-5.7242,0,-5.695,-5.6979,-5.7129,-5.7121,-5.7144,-5.7209,-5.7242,-5.7288,-5.7297,-5.7279,-5.7301,-5.7245,-5.7326,-5.7218,-5.7329,-5.7244,-5.727,-5.7266,-5.7273,-5.7279,-5.7159,-5.7348,-5.7653,-5.7685,-5.7283,-5.728,-5.7277,0,-5.7162,-5.7238,-5.7338,-5.7349,-5.7343,-5.7391,-5.7391,-5.7394,-5.7422,-5.7451,-5.7468,-5.7507,-5.7528,-5.756,-5.7516,-5.7441,-5.7635,-5.7522,-5.7624,-5.7625,-5.767,-5.7668,-5.7987,-5.7684,-5.7684,-5.7683,-5.7683,0,-5.7401,-5.7496,-5.7433,-5.7495,-5.76,-5.7539,-5.7645,-5.7634,-5.7638,-5.7697,-5.762,-5.7677,-5.7614,-5.7666,-5.7631,-5.7731,-5.774,-5.7729,-5.772,-5.7738,-5.774,-5.7755,-5.7741,-5.7691,-5.7689,-5.7688,-5.7687,0,-5.7656,-5.7617,-5.772,-5.7706,-5.7705,-5.7783,-5.7771,-5.7828,-5.7804,-5.7879,-5.7894,-5.7857,-5.7914,-5.7872,-5.7928,-5.7905,-5.8037,-5.8006,-5.8034,-5.8026,-5.8131,-5.8123,-5.8473,-5.8517,-5.8184,-5.8187,-5.819,0,-5.7812,-5.7883,-5.7877,-5.7911,-5.7916,-5.7971,-5.7999,-5.7942,-5.7975,-5.7992,-5.8048,-5.8097,-5.8135,-5.823,-5.8209,-5.8252,-5.8223,-5.8343,-5.8229,-5.8246,-5.8228,-5.8225,-5.8233,-5.8366,-5.837,-5.8373,-5.8376,0,-5.8094,-5.8072,-5.8115,-5.8153,-5.8188,-5.8215,-5.8235,-5.8268,-5.821,-5.8251,-5.8308,-5.8337,-5.8395,-5.8446,-5.8482,-5.8482,-5.8422,-5.8412,-5.8438,-5.8458,-5.8472,-5.8469,-5.8099,-5.8404,-5.8402,-5.8399,-5.8398,-5.8397,-5.8306,-5.8366,-5.8371,-5.8423,-5.8432,-5.8453,-5.8507,-5.849,-5.8536,-5.8579,-5.8542,-5.8612,-5.862,-5.8661,-5.867,-5.8724,-5.8675,-5.8712,-5.8722,-5.8733,-5.8749,-5.8462,-5.873,-5.8729,-5.8728,-5.8727,-5.8727,0,-5.8586,-5.8585,-5.8632,-5.8664,-5.8705,-5.8642,-5.8662,-5.8701,-5.8763,-5.8776,-5.8814,-5.8881,-5.893,-5.8914,-5.8958,-5.9005,-5.8978,-5.9019,-5.9016,-5.9017,-5.8789,-5.8763,-5.904,-5.904,-5.904,-5.9039,-5.9039,-5.9039,-5.8736,-5.8835,-5.8814,-5.8917,-5.8915,-5.8982,-5.9,-5.9019,-5.903,-5.9107,-5.9148,-5.9137,-5.9138,-5.9182,-5.9226,-5.922,-5.9241,-5.9292,-5.9277,-5.9064,-5.9033,-5.9004,-5.8979,-5.9297,-5.9297,-5.9501,-5.9503,-5.9504]},{"header":{"parameterUnit":"m.s-1","parameterCategory":1,"la1":30.2991,"la2":30.254,"lo1":-89.0895,"lo2":-89.0444,"dy":0.0017,"dx":0.0017,"nx":28,"ny":28,"refTime":"2023-10-03T21:00:00:Z","depth":0,"parameterNumber":3,"parameterNumberName":"V-component_of_WINDS"},"data":[0,0,0,0,0,0,0,0,0,0,0,0,0,0,0,0,0,0,0,0,0,0,0,0,0,0,0,0,0,0,0,0,0,0,0,0,0,0,0,0,0,0,0,0,0,0,0,0,0,0,0,0,0,0,0,0,0,0,-1.7394,-1.7394,0,-1.7349,-1.7348,-1.7348,-1.7289,-1.7288,-1.7287,-1.7286,-1.724,-1.724,-1.724,0,0,0,0,0,0,0,0,0,0,0,0,0,-1.7429,-1.7428,-1.7394,-1.7394,-1.7393,-1.7349,-1.7348,-1.7348,-1.7289,-1.7288,-1.7286,-1.7285,-1.724,-1.724,-1.724,0,0,0,0,0,0,0,0,0,0,0,0,0,-1.7402,-1.7428,-1.7394,-1.7358,-1.7355,-1.7349,-1.7348,-1.7347,-1.7289,-1.7288,-1.7286,-1.7285,-1.724,-1.724,-1.724,-1.7266,0,0,-1.7238,-1.7238,0,0,0,0,0,0,0,0,-1.7403,-1.74,-1.7364,-1.7361,-1.7357,-1.7323,-1.7344,-1.732,-1.7289,-1.7314,-1.7286,-1.7284,-1.7269,-1.7266,-1.7261,-1.7264,-1.7262,-1.7238,-1.7238,-1.7238,-1.7237,0,0,0,0,0,0,0,-1.7405,-1.7402,-1.7376,-1.7364,-1.7359,-1.7344,-1.7339,-1.7339,-1.73,-1.7312,-1.7307,-1.7303,-1.7267,-1.7261,-1.7259,-1.7261,-1.7238,-1.7238,-1.7237,-1.7237,-1.728,-1.7281,0,0,0,0,0,0,-1.7413,-1.7404,-1.7378,-1.7375,-1.7377,-1.7345,-1.7339,-1.7335,-1.73,-1.7293,-1.7304,-1.73,-1.7263,-1.726,-1.7257,-1.7284,-1.7238,-1.7237,-1.7237,-1.7279,-1.728,-1.7282,0,0,0,0,0,0,-1.7414,-1.7411,-1.7379,-1.7388,-1.7383,-1.7346,-1.7342,-1.7335,-1.733,-1.7294,-1.7287,-1.7306,-1.7262,-1.7258,-1.7263,-1.7282,-1.7237,-1.7237,-1.7277,-1.7279,-1.7281,-1.7339,0,0,0,0,0,0,-1.7415,-1.7411,-1.7421,-1.7389,-1.7383,-1.7387,-1.7343,-1.7335,-1.7329,-1.7323,-1.7294,-1.7288,-1.726,-1.7264,-1.7263,-1.728,-1.7236,-1.7275,-1.7278,-1.7281,-1.7335,-1.7342,-1.7349,0,0,0,0,0,-1.7416,-1.744,-1.7422,-1.7419,-1.7394,-1.7388,-1.7384,-1.7352,-1.7331,-1.734,-1.7317,-1.7289,-1.728,-1.7265,-1.7263,-1.7281,-1.7274,-1.7277,-1.728,-1.7332,-1.7341,-1.7349,0,0,0,0,0,0,-1.7477,-1.7435,-1.7415,-1.7429,-1.7412,-1.7378,-1.7389,-1.7363,-1.7353,-1.7348,-1.7308,-1.7302,-1.7312,-1.7297,-1.7282,-1.7303,-1.7273,-1.7276,-1.7312,-1.7321,-1.7328,-1.7331,-1.7236,0,0,0,0,0,-1.7491,-1.749,-1.7454,-1.7469,-1.7462,-1.7427,-1.7423,-1.7399,-1.738,-1.7373,-1.735,-1.7333,-1.7326,-1.7323,-1.7315,-1.7332,-1.7324,-1.7343,-1.735,-1.7356,-1.7359,-1.7365,-1.7372,-1.7292,-1.7292,-1.7292,0,0,-1.7522,-1.7499,-1.7501,-1.7481,-1.7465,-1.7463,-1.7421,-1.7422,-1.742,-1.7373,-1.7376,-1.7359,-1.7337,-1.7348,-1.7352,-1.7336,-1.7379,-1.736,-1.7365,-1.7365,-1.7369,-1.7377,-1.7383,-1.7295,-1.7294,-1.7294,0,0,-1.7578,-1.7561,-1.7571,-1.7556,-1.7532,-1.7508,-1.7511,-1.7479,-1.7466,-1.7468,-1.7432,-1.7429,-1.7419,-1.7404,-1.7395,-1.7442,-1.7416,-1.7441,-1.7477,-1.7484,-1.749,-1.7495,-1.7511,-1.7517,-1.7444,-1.7444,-1.7444,0,-1.7619,-1.7615,-1.758,-1.7582,-1.7573,-1.753,-1.7539,-1.7526,-1.7502,-1.7496,-1.7479,-1.7463,-1.7445,-1.7451,-1.7462,-1.7457,-1.7458,-1.7444,-1.7492,-1.7497,-1.7502,-1.7516,-1.7522,-1.7447,-1.7447,-1.7447,-1.7446,0,-1.7667,-1.7664,-1.7676,-1.7652,-1.7644,-1.7651,-1.7615,-1.7612,-1.7588,-1.7566,-1.7568,-1.7545,-1.7531,-1.753,-1.7508,-1.7532,-1.7523,-1.7499,-1.7468,-1.7513,-1.7525,-1.7531,-1.7452,-1.7451,-1.745,-1.7449,0,0,-1.776,-1.7714,-1.7719,-1.7707,-1.7676,-1.7674,-1.7677,-1.7662,-1.7659,-1.7643,-1.7644,-1.7635,-1.7612,-1.7602,-1.7578,-1.7583,-1.762,-1.7558,-1.7557,-1.757,-1.7644,-1.7661,-1.7668,-1.7602,-1.7603,-1.7604,-1.7645,0,-1.7808,-1.7812,-1.7779,-1.779,-1.7787,-1.7744,-1.7747,-1.7728,-1.7707,-1.7701,-1.7678,-1.7671,-1.7642,-1.7636,-1.7639,-1.7615,-1.7634,-1.7612,-1.7602,-1.7602,-1.7608,-1.7675,-1.7694,-1.7734,-1.765,-1.7651,-1.7651,0,-1.7866,-1.7852,-1.7863,-1.783,-1.7827,-1.7831,-1.7813,-1.7808,-1.7785,-1.7769,-1.7757,-1.7728,-1.7728,-1.7698,-1.7697,-1.7682,-1.7676,-1.7663,-1.7664,-1.7661,-1.7629,-1.7673,-1.7746,-1.7752,-1.7659,-1.7658,-1.7658,0,-1.7931,-1.7915,-1.7919,-1.791,-1.7872,-1.7875,-1.7859,-1.7835,-1.7827,-1.7812,-1.7806,-1.7791,-1.7783,-1.7772,-1.7739,-1.7721,-1.7741,-1.7709,-1.7727,-1.7728,-1.7733,-1.7733,-1.7805,-1.7731,-1.7731,-1.773,-1.773,0,-1.7989,-1.7997,-1.7947,-1.795,-1.7957,-1.7919,-1.7927,-1.7907,-1.7886,-1.7883,-1.7845,-1.7843,-1.7801,-1.7794,-1.7768,-1.777,-1.7767,-1.7753,-1.7746,-1.7756,-1.7758,-1.7751,-1.7747,-1.7732,-1.7732,-1.7731,-1.7731,0,-1.8063,-1.803,-1.8031,-1.7995,-1.7985,-1.7992,-1.7961,-1.7961,-1.7937,-1.7934,-1.7931,-1.7893,-1.7882,-1.7849,-1.783,-1.7813,-1.7822,-1.7809,-1.783,-1.7825,-1.7844,-1.7842,-1.7914,-1.7921,-1.7843,-1.7844,-1.7845,0,-1.8101,-1.8106,-1.807,-1.8065,-1.805,-1.8043,-1.8035,-1.7997,-1.799,-1.7963,-1.7966,-1.7952,-1.7939,-1.7924,-1.7895,-1.788,-1.7866,-1.7892,-1.7864,-1.7873,-1.7865,-1.7865,-1.7864,-1.7898,-1.7899,-1.79,-1.7901,0,-1.8172,-1.8155,-1.8145,-1.8128,-1.8119,-1.8104,-1.8086,-1.8085,-1.8042,-1.8035,-1.8024,-1.8014,-1.7994,-1.798,-1.796,-1.7943,-1.7915,-1.791,-1.7913,-1.7923,-1.7934,-1.7927,-1.7845,-1.7909,-1.7908,-1.7907,-1.7907,-1.7907,-1.8229,-1.823,-1.8204,-1.8193,-1.8176,-1.816,-1.8158,-1.8133,-1.8123,-1.8103,-1.8081,-1.8072,-1.8047,-1.8017,-1.8002,-1.7993,-1.7978,-1.7983,-1.7984,-1.7985,-1.7989,-1.7936,-1.799,-1.7989,-1.7989,-1.7989,-1.7989,0,-1.8297,-1.8277,-1.8267,-1.8244,-1.8235,-1.8208,-1.8187,-1.8181,-1.8173,-1.8152,-1.814,-1.8125,-1.8111,-1.808,-1.8063,-1.8062,-1.8049,-1.8059,-1.8058,-1.8054,-1.8005,-1.8003,-1.807,-1.807,-1.807,-1.807,-1.807,-1.807,-1.8331,-1.8332,-1.8312,-1.8303,-1.8283,-1.8273,-1.8263,-1.8248,-1.8231,-1.8217,-1.8205,-1.8184,-1.8159,-1.8139,-1.8125,-1.8116,-1.8111,-1.8125,-1.8112,-1.8066,-1.8058,-1.8051,-1.8049,-1.8125,-1.8125,-1.8162,-1.8162,-1.8162]}]]